Regional Weather Roundup
Issued by NWS

Home | Current Version | Previous Version | Graphics & Text | Print | Product List | Glossary On
Versions: 1 2 3 4 5 6 7 8 9 10 11 12 13 14 15 16 17 18 19 20 21 22 23 24 25 26 27 28 29 30 31 32 33 34 35 36 37 38 39 40 41 42 43 44 45 46 47 48 49 50
000
ASUS44 KMEG 062200
RWRTN
TENNESSEE HOURLY STATE WEATHER ROUNDUP
NATIONAL WEATHER SERVICE MEMPHIS TN
500 PM CDT MON JUL 06 2015

TNZ002-004-019-021-049-052-054-088>092-062300-
WEST TENNESSEE

CITY           SKY/WX    TMP DP  RH WIND       PRES   REMARKS
MEMPHIS INTL   PTSUNNY   86  74  67 S14       30.04F HX  94
NWS MEMPHIS      N/A     87 N/A N/A MISG        N/A
JACKSON        SUNNY     86  73  65 SW7       30.05S HX  93
DYERSBURG        N/A    N/A N/A N/A MISG        N/A
PARIS          MOSUNNY   84  73  70 SW8       30.04F HX  91
LEXINGTON      PTSUNNY   84  73  70 SW8       30.05S HX  91
$$

TNZ008-025-027-028-033-062-065-066-062300-
NORTH MIDDLE TENNESSEE

CITY           SKY/WX    TMP DP  RH WIND       PRES   REMARKS
NASHVILLE      PTSUNNY   85  72  65 SW6       30.07F HX  91
CLARKSVILLE    MOSUNNY   85  71  63 SW8       30.04F HX  90
COOKEVILLE     MOSUNNY   88  73  62 SW7       30.10S HX  96
CROSSVILLE     SUNNY     81  65  58 W8        30.15S
$$

TNZ061-075-076-078-094-096-097-062300-
SOUTH MIDDLE TENNESSEE

CITY           SKY/WX    TMP DP  RH WIND       PRES   REMARKS
FAYETTEVILLE   MOSUNNY   82  68  61 SW6       30.11S
TULLAHOMA      SUNNY     82  68  61 SW5       30.12F
WINCHESTER     SUNNY     84  70  61 W5        30.11F
COLUMBIA       PTSUNNY   88  73  62 S7        30.06F HX  96
SHELBYVILLE    MOSUNNY   84  73  70 SW6         N/A  HX  91
$$

TNZ017-018-042-046-047-062300-
NORTHEAST TENNESSEE

CITY           SKY/WX    TMP DP  RH WIND       PRES   REMARKS
TRI CITIES     MOSUNNY   81  64  56 W7        30.12F
ELIZABETHTON   CLEAR     79  64  61 NW3       30.13F
$$

TNZ012-013-036-069-073-074-062300-
CENTRAL EAST TENNESSEE

CITY           SKY/WX    TMP DP  RH WIND       PRES   REMARKS
KNOXVILLE      PTSUNNY   84  68  58 SW8       30.09F
OAK RIDGE      MOSUNNY   85  67  54 CALM      30.11F
GATLINBURG     PTCLDY    84  64  51 W3        30.09F
$$

TNZ083-085-099-062300-
SOUTHEAST TENNESSEE

CITY           SKY/WX    TMP DP  RH WIND       PRES   REMARKS
CHATTANOOGA    MOSUNNY   86  67  52 W8        30.09F
$$

SKY/WX REPORTED AS FAIR MEANS FEW OR NO CLOUDS BELOW
12 THOUSAND FEET.




USA.gov is the U.S. government's official web portal to all federal, state and local government web resources and services.